Tracking 29511 objects as of 15-Sep-2024
HD Live streaming from Space Station
objects crossing your sky now

FENGYUN 1C DEB

Track FENGYUN 1C DEB now!
10-day predictions


NORAD ID: 29843
Int'l Code: 1999-025EM
Perigee: 667.7 km
Apogee: 949.4 km
Inclination: 99.0 °
Period: 100.9 minutes
Semi major axis: 7179 km
RCS: 0.054 m2 (small)
Launch date: May 10, 1999
Source: People's Republic of China (PRC)
Launch site: Taiyaun Space Center, China (TSC)

Note: This is SATELLITE DEBRIS
Your satellite tracking list
Your tracking list is empty




NASA's NSSDC Master Catalog

Two Line Element Set (TLE):
1 29843U 99025EM  24258.97035932  .00004704  00000-0  15885-2 0  9994
2 29843  99.0465  74.7922 0196193 162.3864 350.0959 14.27112860918057
Source of the keplerian elements: AFSPC